Simultaneous Nadir Overpasses (SNOs) Predictions

Prediction of SNOs between AQUA and METOP-A Satellite Orbit:

Table of predicted SNOs for the next 14.0 days since TLE Epoch: 6/14/2013
Index Date (AQUA) Time (AQUA) Lat,Lon (AQUA) SZA (AQUA ) Date (METOP-A) Time (METOP-A) Lat,Lon (METOP-A) SZA (METOP-A ) Distance(km) Time Diff (sec)
1 06/16/2013 05:31:45 -73.86, -88.66 129.48 06/16/2013 05:31:08 -73.88, -88.68 129.46 1.61 37
2 06/16/2013 06:21:14 73.94, 78.81 50.60 06/16/2013 06:21:47 73.92, 78.76 50.58 2.62 33
3 06/19/2013 01:05:57 -73.88, -22.26 129.52 06/19/2013 01:05:29 -73.87, -22.27 129.53 1.35 28
4 06/19/2013 01:55:26 73.96, 145.20 50.57 06/19/2013 01:56:07 73.96, 145.27 50.55 2.06 41
5 06/21/2013 20:40:07 -73.86, 44.24 129.55 06/21/2013 20:39:49 -73.86, 44.13 129.54 3.45 18
6 06/21/2013 21:29:36 73.95,-148.31 50.54 06/21/2013 21:30:27 73.94,-148.35 50.53 1.39 51
7 06/24/2013 15:24:46 73.52, -56.21 50.13 06/24/2013 15:23:36 73.45, -57.75 50.13 49.32 70
8 06/24/2013 16:14:19 -73.91, 110.59 129.46 06/24/2013 16:14:09 -73.90, 110.64 129.47 1.54 10
9 06/24/2013 17:03:47 73.94, -81.85 50.58 06/24/2013 17:04:47 73.97, -81.86 50.60 3.54 60
10 06/27/2013 10:59:02 73.79, 9.66 50.52 06/27/2013 10:57:50 73.78, 9.43 50.52 7.35 72
11 06/27/2013 11:48:30 -73.91, 177.03 129.36 06/27/2013 11:48:30 -73.89, 177.02 129.38 2.94 0




NCC Satellite Simultaneous Nadir Overpasses (SNOs) Prediction Service
